Time,TemperatureF,DewpointF,PressureIn,WindDirection,WindDirectionDegrees,WindSpeedMPH,WindSpeedGustMPH,Humidity,HourlyPrecipIn,Conditions,Clouds,dailyrainin,SoftwareType,DateUTC
2013-09-26 00:02:00,57.1,45.0,29.83,West,268,0.0,2.0,64,0.00,,,0.00,WeatherCatV1.21B27,2013-09-26 07:02:00,
2013-09-26 00:07:00,57.1,45.0,29.83,WSW,241,1.0,2.0,64,0.00,,,0.00,WeatherCatV1.21B27,2013-09-26 07:07:00,
2013-09-26 00:12:00,57.0,44.9,29.83,WSW,256,2.0,2.0,64,0.00,,,0.00,WeatherCatV1.21B27,2013-09-26 07:12:00,
2013-09-26 00:17:00,57.0,44.9,29.83,ENE,60,0.0,2.0,64,0.00,,,0.00,WeatherCatV1.21B27,2013-09-26 07:17:00,
2013-09-26 00:22:00,56.9,44.8,29.83,SW,236,1.0,2.0,64,0.00,,,0.00,WeatherCatV1.21B27,2013-09-26 07:22:00,
2013-09-26 00:27:00,56.9,44.8,29.83,WSW,253,3.0,6.0,64,0.00,,,0.00,WeatherCatV1.21B27,2013-09-26 07:27:00,
2013-09-26 00:32:00,56.9,44.8,29.83,SW,231,1.0,2.0,64,0.00,,,0.00,WeatherCatV1.21B27,2013-09-26 07:32:00,
2013-09-26 00:37:00,56.8,44.8,29.83,WSW,252,2.0,2.0,64,0.00,,,0.00,WeatherCatV1.21B27,2013-09-26 07:37:00,
2013-09-26 00:42:00,56.8,44.8,29.83,SW,225,0.0,1.0,64,0.00,,,0.00,WeatherCatV1.21B27,2013-09-26 07:42:00,
2013-09-26 00:47:00,56.6,44.6,29.83,ESE,109,0.0,1.0,64,0.00,,,0.00,WeatherCatV1.21B27,2013-09-26 07:47:00,
2013-09-26 00:52:00,56.6,44.6,29.83,SW,231,0.0,1.0,64,0.00,,,0.00,WeatherCatV1.21B27,2013-09-26 07:52:00,
2013-09-26 00:57:00,56.6,44.6,29.83,SSW,206,0.0,3.0,64,0.00,,,0.00,WeatherCatV1.21B27,2013-09-26 07:57:00,
2013-09-26 01:02:00,56.7,44.7,29.83,WSW,240,1.0,2.0,64,0.00,,,0.00,WeatherCatV1.21B27,2013-09-26 08:02:00,
2013-09-26 01:07:00,56.6,44.6,29.83,SW,235,0.0,2.0,64,0.00,,,0.00,WeatherCatV1.21B27,2013-09-26 08:07:00,
2013-09-26 01:12:00,56.6,44.6,29.83,SW,235,0.0,2.0,64,0.00,,,0.00,WeatherCatV1.21B27,2013-09-26 08:12:00,
2013-09-26 01:17:00,56.5,44.5,29.83,SW,221,1.0,3.0,64,0.00,,,0.00,WeatherCatV1.21B27,2013-09-26 08:17:00,
2013-09-26 01:22:00,56.5,44.5,29.83,WSW,249,2.0,2.0,64,0.00,,,0.00,WeatherCatV1.21B27,2013-09-26 08:22:00,
2013-09-26 01:27:00,56.5,44.5,29.83,NNE,32,0.0,3.0,64,0.00,,,0.00,WeatherCatV1.21B27,2013-09-26 08:27:00,
2013-09-26 01:32:00,56.5,44.5,29.83,SW,224,0.0,4.0,64,0.00,,,0.00,WeatherCatV1.21B27,2013-09-26 08:32:00,
2013-09-26 01:37:00,56.4,44.4,29.83,SW,217,0.0,4.0,64,0.00,,,0.00,WeatherCatV1.21B27,2013-09-26 08:37:00,
2013-09-26 01:42:00,56.4,44.4,29.83,SW,223,0.0,0.0,64,0.00,,,0.00,WeatherCatV1.21B27,2013-09-26 08:42:00,
2013-09-26 01:47:00,56.2,44.2,29.83,WSW,251,0.0,2.0,64,0.00,,,0.00,WeatherCatV1.21B27,2013-09-26 08:47:00,
2013-09-26 01:52:00,56.2,44.2,29.83,SW,226,0.0,1.0,64,0.00,,,0.00,WeatherCatV1.21B27,2013-09-26 08:52:00,
2013-09-26 01:57:00,56.1,44.1,29.83,SW,236,0.0,3.0,64,0.00,,,0.00,WeatherCatV1.21B27,2013-09-26 08:57:00,
2013-09-26 02:03:00,56.0,44.4,29.84,WSW,242,0.0,2.0,65,0.00,,,0.00,WeatherCatV1.21B27,2013-09-26 09:03:00,
2013-09-26 02:08:00,55.7,44.1,29.84,NE,44,0.0,2.0,65,0.00,,,0.00,WeatherCatV1.21B27,2013-09-26 09:08:00,
2013-09-26 02:13:00,55.6,44.0,29.84,SW,227,0.0,3.0,65,0.00,,,0.00,WeatherCatV1.21B27,2013-09-26 09:13:00,
2013-09-26 02:18:00,55.5,43.9,29.84,SW,231,1.0,2.0,65,0.00,,,0.00,WeatherCatV1.21B27,2013-09-26 09:18:00,
2013-09-26 02:23:00,55.5,43.9,29.84,WSW,239,2.0,2.0,65,0.00,,,0.00,WeatherCatV1.21B27,2013-09-26 09:23:00,
2013-09-26 02:28:00,55.5,43.9,29.84,WSW,245,0.0,2.0,65,0.00,,,0.00,WeatherCatV1.21B27,2013-09-26 09:28:00,
2013-09-26 02:33:00,55.4,43.4,29.84,SW,236,0.0,1.0,64,0.00,,,0.00,WeatherCatV1.21B27,2013-09-26 09:33:00,
2013-09-26 02:38:00,55.5,43.5,29.84,WSW,240,0.0,3.0,64,0.00,,,0.00,WeatherCatV1.21B27,2013-09-26 09:38:00,
2013-09-26 02:43:00,55.5,43.5,29.84,SW,219,1.0,1.0,64,0.00,,,0.00,WeatherCatV1.21B27,2013-09-26 09:43:00,
2013-09-26 02:48:00,55.4,43.8,29.84,SW,226,0.0,0.0,65,0.00,,,0.00,WeatherCatV1.21B27,2013-09-26 09:48:00,
2013-09-26 02:53:00,55.4,43.8,29.84,SW,230,1.0,1.0,65,0.00,,,0.00,WeatherCatV1.21B27,2013-09-26 09:53:00,
2013-09-26 02:58:00,55.3,43.7,29.84,SW,226,0.0,0.0,65,0.00,,,0.00,WeatherCatV1.21B27,2013-09-26 09:58:00,
2013-09-26 03:03:00,55.2,43.6,29.84,SW,225,0.0,0.0,65,0.00,,,0.00,WeatherCatV1.21B27,2013-09-26 10:03:00,
2013-09-26 03:08:00,55.0,43.5,29.84,SW,236,0.0,1.0,65,0.00,,,0.00,WeatherCatV1.21B27,2013-09-26 10:08:00,
2013-09-26 03:13:00,55.0,43.5,29.84,SW,235,0.0,2.0,65,0.00,,,0.00,WeatherCatV1.21B27,2013-09-26 10:13:00,
2013-09-26 03:18:00,54.9,43.4,29.84,SW,236,0.0,0.0,65,0.00,,,0.00,WeatherCatV1.21B27,2013-09-26 10:18:00,
2013-09-26 03:23:00,54.7,43.2,29.84,SSW,205,0.0,2.0,65,0.00,,,0.00,WeatherCatV1.21B27,2013-09-26 10:23:00,
2013-09-26 03:28:00,54.7,42.8,29.84,WSW,238,1.0,1.0,64,0.00,,,0.00,WeatherCatV1.21B27,2013-09-26 10:28:00,
2013-09-26 03:33:00,54.7,42.8,29.85,WSW,238,0.0,0.0,64,0.00,,,0.00,WeatherCatV1.21B27,2013-09-26 10:33:00,
2013-09-26 03:38:00,54.7,43.2,29.85,West,269,0.0,0.0,65,0.00,,,0.00,WeatherCatV1.21B27,2013-09-26 10:38:00,
2013-09-26 03:43:00,54.7,42.8,29.85,WSW,240,0.0,1.0,64,0.00,,,0.00,WeatherCatV1.21B27,2013-09-26 10:43:00,
2013-09-26 03:48:00,54.8,42.9,29.85,WSW,243,0.0,1.0,64,0.00,,,0.00,WeatherCatV1.21B27,2013-09-26 10:48:00,
2013-09-26 03:53:00,54.8,42.9,29.84,SW,233,2.0,3.0,64,0.00,,,0.00,WeatherCatV1.21B27,2013-09-26 10:53:00,
2013-09-26 03:58:00,54.8,42.9,29.84,NE,50,0.0,1.0,64,0.00,,,0.00,WeatherCatV1.21B27,2013-09-26 10:58:00,
2013-09-26 04:03:00,54.7,42.8,29.84,SW,233,0.0,1.0,64,0.00,,,0.00,WeatherCatV1.21B27,2013-09-26 11:03:00,
2013-09-26 04:08:00,54.8,42.5,29.84,SSW,210,1.0,2.0,63,0.00,,,0.00,WeatherCatV1.21B27,2013-09-26 11:08:00,
2013-09-26 04:13:00,54.8,42.5,29.84,SW,215,0.0,1.0,63,0.00,,,0.00,WeatherCatV1.21B27,2013-09-26 11:13:00,
2013-09-26 04:18:00,54.9,42.1,29.85,SSW,206,0.0,2.0,62,0.00,,,0.00,WeatherCatV1.21B27,2013-09-26 11:18:00,
2013-09-26 04:23:00,55.0,42.2,29.84,SW,217,0.0,2.0,62,0.00,,,0.00,WeatherCatV1.21B27,2013-09-26 11:23:00,
2013-09-26 04:28:00,55.1,41.9,29.85,SW,232,1.0,2.0,61,0.00,,,0.00,WeatherCatV1.21B27,2013-09-26 11:28:00,
2013-09-26 04:33:00,55.1,41.9,29.84,SW,224,0.0,1.0,61,0.00,,,0.00,WeatherCatV1.21B27,2013-09-26 11:33:00,
2013-09-26 04:38:00,55.2,42.0,29.85,SSW,207,0.0,0.0,61,0.00,,,0.00,WeatherCatV1.21B27,2013-09-26 11:38:00,
2013-09-26 04:43:00,55.2,42.0,29.85,SW,227,0.0,1.0,61,0.00,,,0.00,WeatherCatV1.21B27,2013-09-26 11:43:00,
2013-09-26 04:48:00,55.1,41.9,29.85,SW,221,0.0,2.0,61,0.00,,,0.00,WeatherCatV1.21B27,2013-09-26 11:48:00,
2013-09-26 04:53:00,55.1,41.9,29.85,SW,214,1.0,1.0,61,0.00,,,0.00,WeatherCatV1.21B27,2013-09-26 11:53:00,
2013-09-26 04:58:00,55.1,41.9,29.85,SW,230,0.0,2.0,61,0.00,,,0.00,WeatherCatV1.21B27,2013-09-26 11:58:00,
2013-09-26 05:03:00,55.1,41.5,29.85,SSW,205,0.0,3.0,60,0.00,,,0.00,WeatherCatV1.21B27,2013-09-26 12:03:00,
2013-09-26 05:08:00,55.3,41.7,29.85,WSW,250,3.0,3.0,60,0.00,,,0.00,WeatherCatV1.21B27,2013-09-26 12:08:00,
2013-09-26 05:13:00,55.4,41.8,29.85,NW,320,0.0,1.0,60,0.00,,,0.00,WeatherCatV1.21B27,2013-09-26 12:13:00,
2013-09-26 05:18:00,55.4,41.3,29.85,NE,42,0.0,3.0,59,0.00,,,0.00,WeatherCatV1.21B27,2013-09-26 12:18:00,
2013-09-26 05:23:00,55.5,41.0,29.85,NE,34,0.0,3.0,58,0.00,,,0.00,WeatherCatV1.21B27,2013-09-26 12:23:00,
2013-09-26 05:28:00,55.6,41.1,29.85,WSW,245,1.0,4.0,58,0.00,,,0.00,WeatherCatV1.21B27,2013-09-26 12:28:00,
2013-09-26 05:33:00,55.7,41.2,29.85,West,265,1.0,2.0,58,0.00,,,0.00,WeatherCatV1.21B27,2013-09-26 12:33:00,
2013-09-26 05:38:00,55.7,41.2,29.85,WSW,245,1.0,2.0,58,0.00,,,0.00,WeatherCatV1.21B27,2013-09-26 12:38:00,
2013-09-26 05:43:00,55.7,40.7,29.85,WSW,243,1.0,5.0,57,0.00,,,0.00,WeatherCatV1.21B27,2013-09-26 12:43:00,
2013-09-26 05:48:00,55.9,40.9,29.85,SW,218,1.0,3.0,57,0.00,,,0.00,WeatherCatV1.21B27,2013-09-26 12:48:00,
2013-09-26 05:53:00,55.9,40.9,29.86,SSW,207,0.0,1.0,57,0.00,,,0.00,WeatherCatV1.21B27,2013-09-26 12:53:00,
2013-09-26 05:58:00,55.8,40.8,29.85,NNE,32,1.0,1.0,57,0.00,,,0.00,WeatherCatV1.21B27,2013-09-26 12:58:00,
2013-09-26 06:03:00,55.8,40.8,29.86,SSW,207,0.0,1.0,57,0.00,,,0.00,WeatherCatV1.21B27,2013-09-26 13:03:00,
2013-09-26 06:08:00,55.7,40.7,29.86,North,4,0.0,2.0,57,0.00,,,0.00,WeatherCatV1.21B27,2013-09-26 13:08:00,
2013-09-26 06:13:00,55.8,40.8,29.86,ENE,58,2.0,4.0,57,0.00,,,0.00,WeatherCatV1.21B27,2013-09-26 13:13:00,
2013-09-26 06:18:00,56.0,40.5,29.86,SW,217,0.0,2.0,56,0.00,,,0.00,WeatherCatV1.21B27,2013-09-26 13:18:00,
2013-09-26 06:23:00,56.0,40.5,29.86,SW,224,1.0,1.0,56,0.00,,,0.00,WeatherCatV1.21B27,2013-09-26 13:23:00,
2013-09-26 06:28:00,55.9,40.0,29.86,SW,226,0.0,1.0,55,0.00,,,0.00,WeatherCatV1.21B27,2013-09-26 13:28:00,
2013-09-26 06:33:00,56.1,39.7,29.87,WSW,245,0.0,1.0,54,0.00,,,0.00,WeatherCatV1.21B27,2013-09-26 13:33:00,
2013-09-26 06:38:00,56.2,39.8,29.87,WSW,255,0.0,1.0,54,0.00,,,0.00,WeatherCatV1.21B27,2013-09-26 13:38:00,
2013-09-26 06:43:00,56.2,39.8,29.87,WSW,245,2.0,2.0,54,0.00,,,0.00,WeatherCatV1.21B27,2013-09-26 13:43:00,
2013-09-26 06:48:00,56.2,39.3,29.87,WSW,252,0.0,0.0,53,0.00,,,0.00,WeatherCatV1.21B27,2013-09-26 13:48:00,
2013-09-26 06:53:00,56.3,39.4,29.87,SW,221,0.0,1.0,53,0.00,,,0.00,WeatherCatV1.21B27,2013-09-26 13:53:00,
2013-09-26 06:58:00,56.4,39.5,29.87,WSW,238,0.0,0.0,53,0.00,,,0.00,WeatherCatV1.21B27,2013-09-26 13:58:00,
2013-09-26 07:03:00,56.4,39.0,29.88,SW,231,0.0,0.0,52,0.00,,,0.00,WeatherCatV1.21B27,2013-09-26 14:03:00,
2013-09-26 07:08:00,56.4,39.5,29.88,SW,230,0.0,0.0,53,0.00,,,0.00,WeatherCatV1.21B27,2013-09-26 14:08:00,
2013-09-26 07:13:00,56.4,40.0,29.88,SW,230,0.0,0.0,54,0.00,,,0.00,WeatherCatV1.21B27,2013-09-26 14:13:00,
2013-09-26 07:18:00,56.2,39.8,29.88,SW,226,0.0,1.0,54,0.00,,,0.00,WeatherCatV1.21B27,2013-09-26 14:18:00,
2013-09-26 07:23:00,56.0,39.6,29.88,NE,51,0.0,0.0,54,0.00,,,0.00,WeatherCatV1.21B27,2013-09-26 14:23:00,
2013-09-26 07:28:00,55.8,39.9,29.88,NE,51,0.0,0.0,55,0.00,,,0.00,WeatherCatV1.21B27,2013-09-26 14:28:00,
2013-09-26 07:33:00,55.7,39.3,29.89,NE,50,0.0,1.0,54,0.00,,,0.00,WeatherCatV1.21B27,2013-09-26 14:33:00,
2013-09-26 07:38:00,55.8,39.9,29.89,NE,50,0.0,1.0,55,0.00,,,0.00,WeatherCatV1.21B27,2013-09-26 14:38:00,
2013-09-26 07:43:00,55.9,40.0,29.89,NE,50,0.0,0.0,55,0.00,,,0.00,WeatherCatV1.21B27,2013-09-26 14:43:00,
2013-09-26 07:48:00,56.0,40.1,29.89,SW,236,0.0,1.0,55,0.00,,,0.00,WeatherCatV1.21B27,2013-09-26 14:48:00,
2013-09-26 07:53:00,56.1,39.7,29.89,SW,214,0.0,0.0,54,0.00,,,0.00,WeatherCatV1.21B27,2013-09-26 14:53:00,
2013-09-26 07:58:00,56.2,40.2,29.89,SW,221,0.0,0.0,55,0.00,,,0.00,WeatherCatV1.21B27,2013-09-26 14:58:00,
2013-09-26 08:03:00,56.2,40.7,29.89,SW,221,1.0,1.0,56,0.00,,,0.00,WeatherCatV1.21B27,2013-09-26 15:03:00,
2013-09-26 08:08:00,56.1,40.6,29.89,SW,221,0.0,0.0,56,0.00,,,0.00,WeatherCatV1.21B27,2013-09-26 15:08:00,
2013-09-26 08:13:00,56.3,40.3,29.89,SW,221,0.0,1.0,55,0.00,,,0.00,WeatherCatV1.21B27,2013-09-26 15:13:00,
2013-09-26 08:18:00,56.6,40.2,29.90,SW,221,0.0,1.0,54,0.00,,,0.00,WeatherCatV1.21B27,2013-09-26 15:18:00,
2013-09-26 08:23:00,56.9,40.9,29.90,SW,221,1.0,1.0,55,0.00,,,0.00,WeatherCatV1.21B27,2013-09-26 15:23:00,
2013-09-26 08:28:00,57.3,40.8,29.90,SW,233,0.0,0.0,54,0.00,,,0.00,WeatherCatV1.21B27,2013-09-26 15:28:00,
2013-09-26 08:33:00,57.4,41.8,29.91,SW,233,0.0,1.0,56,0.00,,,0.00,WeatherCatV1.21B27,2013-09-26 15:33:00,
2013-09-26 08:38:00,57.8,41.3,29.91,SSW,213,0.0,1.0,54,0.00,,,0.00,WeatherCatV1.21B27,2013-09-26 15:38:00,
2013-09-26 08:43:00,58.3,42.2,29.91,WNW,290,0.0,0.0,55,0.00,,,0.00,WeatherCatV1.21B27,2013-09-26 15:43:00,
2013-09-26 08:48:00,58.9,42.3,29.91,SW,226,0.0,0.0,54,0.00,,,0.00,WeatherCatV1.21B27,2013-09-26 15:48:00,
2013-09-26 08:53:00,59.4,42.3,29.92,SW,217,0.0,1.0,53,0.00,,,0.00,WeatherCatV1.21B27,2013-09-26 15:53:00,
2013-09-26 08:58:00,59.9,41.7,29.92,SW,216,0.0,1.0,51,0.00,,,0.00,WeatherCatV1.21B27,2013-09-26 15:58:00,
2013-09-26 09:03:00,60.6,41.9,29.92,SW,234,0.0,0.0,50,0.00,,,0.00,WeatherCatV1.21B27,2013-09-26 16:03:00,
2013-09-26 09:08:00,61.3,42.0,29.92,North,354,0.0,1.0,49,0.00,,,0.00,WeatherCatV1.21B27,2013-09-26 16:08:00,
2013-09-26 09:13:00,61.9,43.0,29.92,SSW,199,0.0,0.0,50,0.00,,,0.00,WeatherCatV1.21B27,2013-09-26 16:13:00,
2013-09-26 09:18:00,62.6,42.1,29.92,SW,214,1.0,3.0,47,0.00,,,0.00,WeatherCatV1.21B27,2013-09-26 16:18:00,
2013-09-26 09:23:00,63.3,42.2,29.93,WSW,245,0.0,3.0,46,0.00,,,0.00,WeatherCatV1.21B27,2013-09-26 16:23:00,
2013-09-26 09:28:00,64.1,42.9,29.93,SSW,193,0.0,1.0,46,0.00,,,0.00,WeatherCatV1.21B27,2013-09-26 16:28:00,
2013-09-26 09:33:00,64.5,42.1,29.93,SSW,193,0.0,1.0,44,0.00,,,0.00,WeatherCatV1.21B27,2013-09-26 16:33:00,
2013-09-26 09:38:00,65.0,42.0,29.93,NNW,336,0.0,3.0,43,0.00,,,0.00,WeatherCatV1.21B27,2013-09-26 16:38:00,
2013-09-26 09:43:00,65.3,42.8,29.93,WSW,256,0.0,2.0,44,0.00,,,0.00,WeatherCatV1.21B27,2013-09-26 16:43:00,
2013-09-26 09:48:00,65.8,42.7,29.93,SSW,212,0.0,3.0,43,0.00,,,0.00,WeatherCatV1.21B27,2013-09-26 16:48:00,
2013-09-26 09:53:00,66.3,42.5,29.93,WSW,252,1.0,3.0,42,0.00,,,0.00,WeatherCatV1.21B27,2013-09-26 16:53:00,
2013-09-26 09:58:00,66.7,42.2,29.93,WSW,246,0.0,2.0,41,0.00,,,0.00,WeatherCatV1.21B27,2013-09-26 16:58:00,
2013-09-26 10:03:00,67.4,43.5,29.93,SW,229,1.0,1.0,42,0.00,,,0.00,WeatherCatV1.21B27,2013-09-26 17:03:00,
2013-09-26 10:08:00,67.7,42.5,29.93,SW,235,0.0,2.0,40,0.00,,,0.00,WeatherCatV1.21B27,2013-09-26 17:08:00,
2013-09-26 10:13:00,67.9,42.7,29.93,SW,229,1.0,2.0,40,0.00,,,0.00,WeatherCatV1.21B27,2013-09-26 17:13:00,
2013-09-26 10:18:00,68.5,43.9,29.94,SW,215,0.0,1.0,41,0.00,,,0.00,WeatherCatV1.21B27,2013-09-26 17:18:00,
2013-09-26 10:23:00,69.3,42.6,29.93,WSW,249,1.0,2.0,38,0.00,,,0.00,WeatherCatV1.21B27,2013-09-26 17:23:00,
2013-09-26 10:28:00,69.7,43.0,29.94,SW,221,2.0,2.0,38,0.00,,,0.00,WeatherCatV1.21B27,2013-09-26 17:28:00,
2013-09-26 10:33:00,70.3,43.5,29.93,NE,46,1.0,2.0,38,0.00,,,0.00,WeatherCatV1.21B27,2013-09-26 17:33:00,
2013-09-26 10:38:00,70.4,42.2,29.93,WSW,245,3.0,5.0,36,0.00,,,0.00,WeatherCatV1.21B27,2013-09-26 17:38:00,
2013-09-26 10:43:00,70.3,42.8,29.93,West,272,1.0,3.0,37,0.00,,,0.00,WeatherCatV1.21B27,2013-09-26 17:43:00,
2013-09-26 10:48:00,70.6,42.3,29.93,SW,218,0.0,2.0,36,0.00,,,0.00,WeatherCatV1.21B27,2013-09-26 17:48:00,
2013-09-26 10:53:00,70.8,41.8,29.93,SW,217,1.0,3.0,35,0.00,,,0.00,WeatherCatV1.21B27,2013-09-26 17:53:00,
2013-09-26 10:58:00,71.2,42.1,29.93,SW,220,0.0,1.0,35,0.00,,,0.00,WeatherCatV1.21B27,2013-09-26 17:58:00,
2013-09-26 11:03:00,71.7,42.6,29.93,West,264,1.0,2.0,35,0.00,,,0.00,WeatherCatV1.21B27,2013-09-26 18:03:00,
2013-09-26 11:08:00,71.8,41.9,29.92,North,354,0.0,1.0,34,0.00,,,0.00,WeatherCatV1.21B27,2013-09-26 18:08:00,
2013-09-26 11:13:00,72.3,43.8,29.93,SSW,208,2.0,4.0,36,0.00,,,0.00,WeatherCatV1.21B27,2013-09-26 18:13:00,
2013-09-26 11:18:00,72.6,43.4,29.92,North,4,1.0,1.0,35,0.00,,,0.00,WeatherCatV1.21B27,2013-09-26 18:18:00,
2013-09-26 11:23:00,72.8,44.3,29.92,WSW,237,0.0,0.0,36,0.00,,,0.00,WeatherCatV1.21B27,2013-09-26 18:23:00,
2013-09-26 11:28:00,73.2,44.6,29.92,NE,44,0.0,1.0,36,0.00,,,0.00,WeatherCatV1.21B27,2013-09-26 18:28:00,
2013-09-26 11:33:00,73.4,42.5,29.92,NE,40,0.0,2.0,33,0.00,,,0.00,WeatherCatV1.21B27,2013-09-26 18:33:00,
2013-09-26 11:38:00,73.7,45.1,29.92,NNE,13,0.0,0.0,36,0.00,,,0.00,WeatherCatV1.21B27,2013-09-26 18:38:00,
2013-09-26 11:43:00,73.1,41.5,29.92,NE,43,1.0,2.0,32,0.00,,,0.00,WeatherCatV1.21B27,2013-09-26 18:43:00,
2013-09-26 11:48:00,72.0,41.3,29.92,NNE,29,0.0,1.0,33,0.00,,,0.00,WeatherCatV1.21B27,2013-09-26 18:48:00,
2013-09-26 11:53:00,72.3,40.8,29.92,NE,36,0.0,2.0,32,0.00,,,0.00,WeatherCatV1.21B27,2013-09-26 18:53:00,
2013-09-26 11:58:00,72.9,42.9,29.92,NE,34,0.0,1.0,34,0.00,,,0.00,WeatherCatV1.21B27,2013-09-26 18:58:00,
2013-09-26 12:03:00,74.4,44.2,29.92,NE,37,0.0,1.0,34,0.00,,,0.00,WeatherCatV1.21B27,2013-09-26 19:03:00,
2013-09-26 12:08:00,74.6,42.0,29.92,NE,39,0.0,1.0,31,0.00,,,0.00,WeatherCatV1.21B27,2013-09-26 19:08:00,
2013-09-26 12:13:00,74.1,43.1,29.92,NE,44,0.0,1.0,33,0.00,,,0.00,WeatherCatV1.21B27,2013-09-26 19:13:00,
2013-09-26 12:18:00,75.0,43.9,29.92,ENE,66,0.0,0.0,33,0.00,,,0.00,WeatherCatV1.21B27,2013-09-26 19:18:00,
2013-09-26 12:23:00,76.1,42.4,29.92,ENE,65,0.0,1.0,30,0.00,,,0.00,WeatherCatV1.21B27,2013-09-26 19:23:00,
2013-09-26 12:28:00,75.7,41.2,29.92,NE,56,0.0,1.0,29,0.00,,,0.00,WeatherCatV1.21B27,2013-09-26 19:28:00,
2013-09-26 12:33:00,75.7,41.2,29.92,SSW,200,1.0,1.0,29,0.00,,,0.00,WeatherCatV1.21B27,2013-09-26 19:33:00,
2013-09-26 12:38:00,74.6,45.1,29.92,SSE,162,0.0,6.0,35,0.00,,,0.00,WeatherCatV1.21B27,2013-09-26 19:38:00,
2013-09-26 12:43:00,73.0,43.7,29.92,SW,226,4.0,6.0,35,0.00,,,0.00,WeatherCatV1.21B27,2013-09-26 19:43:00,
2013-09-26 12:48:00,71.9,44.2,29.92,WSW,252,2.0,5.0,37,0.00,,,0.00,WeatherCatV1.21B27,2013-09-26 19:48:00,
2013-09-26 12:53:00,71.8,44.1,29.92,WSW,257,7.0,7.0,37,0.00,,,0.00,WeatherCatV1.21B27,2013-09-26 19:53:00,
2013-09-26 12:58:00,71.1,43.5,29.92,WSW,238,4.0,6.0,37,0.00,,,0.00,WeatherCatV1.21B27,2013-09-26 19:58:00,
2013-09-26 13:03:00,70.9,44.0,29.92,WSW,252,4.0,6.0,38,0.00,,,0.00,WeatherCatV1.21B27,2013-09-26 20:03:00,
2013-09-26 13:08:00,70.7,43.1,29.92,SW,219,5.0,8.0,37,0.00,,,0.00,WeatherCatV1.21B27,2013-09-26 20:08:00,
2013-09-26 13:13:00,70.8,43.9,29.92,SW,229,5.0,7.0,38,0.00,,,0.00,WeatherCatV1.21B27,2013-09-26 20:13:00,
2013-09-26 13:18:00,70.5,43.0,29.91,WSW,252,3.0,6.0,37,0.00,,,0.00,WeatherCatV1.21B27,2013-09-26 20:18:00,
2013-09-26 13:23:00,71.4,45.8,29.91,SW,225,3.0,6.0,40,0.00,,,0.00,WeatherCatV1.21B27,2013-09-26 20:23:00,
2013-09-26 13:28:00,71.6,47.3,29.92,SSW,206,2.0,4.0,42,0.00,,,0.00,WeatherCatV1.21B27,2013-09-26 20:28:00,
2013-09-26 13:33:00,71.4,46.5,29.91,SSE,160,0.0,3.0,41,0.00,,,0.00,WeatherCatV1.21B27,2013-09-26 20:33:00,
2013-09-26 13:38:00,71.7,47.4,29.91,SW,231,2.0,5.0,42,0.00,,,0.00,WeatherCatV1.21B27,2013-09-26 20:38:00,
2013-09-26 13:43:00,71.7,46.1,29.91,WSW,253,3.0,5.0,40,0.00,,,0.00,WeatherCatV1.21B27,2013-09-26 20:43:00,
2013-09-26 13:48:00,71.8,46.2,29.91,WSW,246,2.0,5.0,40,0.00,,,0.00,WeatherCatV1.21B27,2013-09-26 20:48:00,
2013-09-26 13:53:00,71.8,46.8,29.91,WSW,246,5.0,6.0,41,0.00,,,0.00,WeatherCatV1.21B27,2013-09-26 20:53:00,
2013-09-26 13:58:00,71.4,46.5,29.90,WSW,242,2.0,7.0,41,0.00,,,0.00,WeatherCatV1.21B27,2013-09-26 20:58:00,
2013-09-26 14:03:00,71.1,47.5,29.90,SW,224,3.0,6.0,43,0.00,,,0.00,WeatherCatV1.21B27,2013-09-26 21:03:00,
2013-09-26 14:08:00,71.4,47.7,29.90,WSW,250,5.0,5.0,43,0.00,,,0.00,WeatherCatV1.21B27,2013-09-26 21:08:00,
2013-09-26 14:13:00,71.4,47.1,29.90,SSW,209,5.0,6.0,42,0.00,,,0.00,WeatherCatV1.21B27,2013-09-26 21:13:00,
2013-09-26 14:18:00,71.6,49.7,29.90,SW,230,6.0,7.0,46,0.00,,,0.00,WeatherCatV1.21B27,2013-09-26 21:18:00,
2013-09-26 14:23:00,72.2,46.5,29.90,SW,231,6.0,8.0,40,0.00,,,0.00,WeatherCatV1.21B27,2013-09-26 21:23:00,
2013-09-26 14:28:00,71.9,44.2,29.89,WSW,245,8.0,8.0,37,0.00,,,0.00,WeatherCatV1.21B27,2013-09-26 21:28:00,
2013-09-26 14:33:00,71.9,43.5,29.89,WSW,248,5.0,9.0,36,0.00,,,0.00,WeatherCatV1.21B27,2013-09-26 21:33:00,
2013-09-26 14:38:00,72.3,43.1,29.89,WSW,255,7.0,11.0,35,0.00,,,0.00,WeatherCatV1.21B27,2013-09-26 21:38:00,
2013-09-26 14:43:00,72.1,43.7,29.89,South,188,7.0,9.0,36,0.00,,,0.00,WeatherCatV1.21B27,2013-09-26 21:43:00,
2013-09-26 14:48:00,72.2,43.8,29.89,WSW,238,8.0,9.0,36,0.00,,,0.00,WeatherCatV1.21B27,2013-09-26 21:48:00,
2013-09-26 14:53:00,72.2,43.0,29.89,SW,223,6.0,7.0,35,0.00,,,0.00,WeatherCatV1.21B27,2013-09-26 21:53:00,
2013-09-26 14:58:00,72.4,44.6,29.89,WSW,243,6.0,8.0,37,0.00,,,0.00,WeatherCatV1.21B27,2013-09-26 21:58:00,
2013-09-26 15:03:00,72.4,43.9,29.89,WSW,256,4.0,9.0,36,0.00,,,0.00,WeatherCatV1.21B27,2013-09-26 22:03:00,
2013-09-26 15:08:00,72.3,43.1,29.89,SSW,204,5.0,7.0,35,0.00,,,0.00,WeatherCatV1.21B27,2013-09-26 22:08:00,
2013-09-26 15:13:00,72.2,42.3,29.89,WSW,245,13.0,13.0,34,0.00,,,0.00,WeatherCatV1.21B27,2013-09-26 22:13:00,
2013-09-26 15:18:00,71.8,41.9,29.89,West,263,4.0,11.0,34,0.00,,,0.00,WeatherCatV1.21B27,2013-09-26 22:18:00,
2013-09-26 15:23:00,71.9,40.4,29.89,WSW,256,5.0,10.0,32,0.00,,,0.00,WeatherCatV1.21B27,2013-09-26 22:23:00,
2013-09-26 15:28:00,72.0,42.1,29.89,SW,226,9.0,12.0,34,0.00,,,0.00,WeatherCatV1.21B27,2013-09-26 22:28:00,
2013-09-26 15:33:00,72.0,42.8,29.88,WSW,247,9.0,9.0,35,0.00,,,0.00,WeatherCatV1.21B27,2013-09-26 22:33:00,
2013-09-26 15:38:00,72.4,43.2,29.88,SSW,208,7.0,9.0,35,0.00,,,0.00,WeatherCatV1.21B27,2013-09-26 22:38:00,
2013-09-26 15:43:00,72.4,43.2,29.88,WSW,252,6.0,7.0,35,0.00,,,0.00,WeatherCatV1.21B27,2013-09-26 22:43:00,
2013-09-26 15:48:00,72.4,41.7,29.88,SW,216,4.0,7.0,33,0.00,,,0.00,WeatherCatV1.21B27,2013-09-26 22:48:00,
2013-09-26 15:53:00,72.0,40.5,29.88,WSW,248,7.0,8.0,32,0.00,,,0.00,WeatherCatV1.21B27,2013-09-26 22:53:00,
2013-09-26 15:58:00,72.3,40.8,29.88,WSW,248,5.0,8.0,32,0.00,,,0.00,WeatherCatV1.21B27,2013-09-26 22:58:00,
2013-09-26 16:03:00,72.4,41.7,29.88,West,260,7.0,12.0,33,0.00,,,0.00,WeatherCatV1.21B27,2013-09-26 23:03:00,
2013-09-26 16:08:00,72.6,42.6,29.88,WSW,242,4.0,8.0,34,0.00,,,0.00,WeatherCatV1.21B27,2013-09-26 23:08:00,
2013-09-26 16:13:00,72.7,41.1,29.88,West,259,7.0,10.0,32,0.00,,,0.00,WeatherCatV1.21B27,2013-09-26 23:13:00,
2013-09-26 16:18:00,73.0,43.7,29.88,WSW,252,6.0,11.0,35,0.00,,,0.00,WeatherCatV1.21B27,2013-09-26 23:18:00,
2013-09-26 16:23:00,72.7,46.3,29.88,SW,223,6.0,9.0,39,0.00,,,0.00,WeatherCatV1.21B27,2013-09-26 23:23:00,
2013-09-26 16:28:00,72.3,45.9,29.88,WSW,257,5.0,9.0,39,0.00,,,0.00,WeatherCatV1.21B27,2013-09-26 23:28:00,
2013-09-26 16:33:00,72.0,46.3,29.88,WSW,246,5.0,8.0,40,0.00,,,0.00,WeatherCatV1.21B27,2013-09-26 23:33:00,
2013-09-26 16:38:00,72.5,46.8,29.88,SSW,212,6.0,8.0,40,0.00,,,0.00,WeatherCatV1.21B27,2013-09-26 23:38:00,
2013-09-26 16:43:00,72.7,47.0,29.88,SSW,212,5.0,6.0,40,0.00,,,0.00,WeatherCatV1.21B27,2013-09-26 23:43:00,
2013-09-26 16:48:00,72.8,46.4,29.88,WSW,256,5.0,8.0,39,0.00,,,0.00,WeatherCatV1.21B27,2013-09-26 23:48:00,
2013-09-26 16:53:00,72.9,47.2,29.88,SW,218,4.0,5.0,40,0.00,,,0.00,WeatherCatV1.21B27,2013-09-26 23:53:00,
2013-09-26 16:58:00,73.5,47.0,29.88,WSW,241,3.0,4.0,39,0.00,,,0.00,WeatherCatV1.21B27,2013-09-26 23:58:00,
2013-09-26 17:03:00,73.5,47.0,29.88,SW,218,0.0,4.0,39,0.00,,,0.00,WeatherCatV1.21B27,2013-09-27 00:03:00,
2013-09-26 17:10:00,74.6,48.7,29.88,SW,229,0.0,1.0,40,0.00,,,0.00,WeatherCatV1.21B27,2013-09-27 00:10:00,
2013-09-26 17:15:00,74.7,48.1,29.88,SW,223,0.0,1.0,39,0.00,,,0.00,WeatherCatV1.21B27,2013-09-27 00:15:00,
2013-09-26 17:20:00,75.2,47.1,29.88,WSW,245,0.0,1.0,37,0.00,,,0.00,WeatherCatV1.21B27,2013-09-27 00:20:00,
2013-09-26 17:25:00,76.0,46.3,29.88,NNW,344,0.0,0.0,35,0.00,,,0.00,WeatherCatV1.21B27,2013-09-27 00:25:00,
2013-09-26 17:30:00,76.2,47.3,29.88,NE,44,0.0,0.0,36,0.00,,,0.00,WeatherCatV1.21B27,2013-09-27 00:30:00,
2013-09-26 17:35:00,76.2,44.2,29.88,NE,41,0.0,0.0,32,0.00,,,0.00,WeatherCatV1.21B27,2013-09-27 00:35:00,
2013-09-26 17:40:00,75.1,44.0,29.88,NE,35,2.0,2.0,33,0.00,,,0.00,WeatherCatV1.21B27,2013-09-27 00:40:00,
2013-09-26 17:45:00,73.7,44.3,29.88,NE,34,0.0,2.0,35,0.00,,,0.00,WeatherCatV1.21B27,2013-09-27 00:45:00,
2013-09-26 17:50:00,72.8,44.3,29.89,NE,41,1.0,1.0,36,0.00,,,0.00,WeatherCatV1.21B27,2013-09-27 00:50:00,
2013-09-26 17:55:00,72.2,43.8,29.89,NE,37,0.0,1.0,36,0.00,,,0.00,WeatherCatV1.21B27,2013-09-27 00:55:00,
2013-09-26 18:00:00,72.3,43.1,29.89,NNE,30,0.0,0.0,35,0.00,,,0.00,WeatherCatV1.21B27,2013-09-27 01:00:00,
2013-09-26 18:05:00,73.0,44.5,29.89,NNE,30,0.0,1.0,36,0.00,,,0.00,WeatherCatV1.21B27,2013-09-27 01:05:00,
2013-09-26 18:10:00,73.5,43.4,29.89,NNE,32,0.0,0.0,34,0.00,,,0.00,WeatherCatV1.21B27,2013-09-27 01:10:00,
2013-09-26 18:15:00,73.2,43.1,29.89,North,350,0.0,0.0,34,0.00,,,0.00,WeatherCatV1.21B27,2013-09-27 01:15:00,
2013-09-26 18:20:00,72.7,42.7,29.89,NE,39,0.0,3.0,34,0.00,,,0.00,WeatherCatV1.21B27,2013-09-27 01:20:00,
2013-09-26 18:25:00,72.2,43.0,29.89,NE,45,0.0,1.0,35,0.00,,,0.00,WeatherCatV1.21B27,2013-09-27 01:25:00,
2013-09-26 18:30:00,71.5,42.4,29.89,NE,44,1.0,1.0,35,0.00,,,0.00,WeatherCatV1.21B27,2013-09-27 01:30:00,
2013-09-26 18:35:00,70.6,43.0,29.90,NE,44,0.0,1.0,37,0.00,,,0.00,WeatherCatV1.21B27,2013-09-27 01:35:00,
2013-09-26 18:40:00,69.8,42.3,29.90,NE,44,0.0,0.0,37,0.00,,,0.00,WeatherCatV1.21B27,2013-09-27 01:40:00,
2013-09-26 18:45:00,69.0,42.3,29.90,NE,39,0.0,1.0,38,0.00,,,0.00,WeatherCatV1.21B27,2013-09-27 01:45:00,
2013-09-26 18:50:00,68.5,41.9,29.90,NE,39,0.0,0.0,38,0.00,,,0.00,WeatherCatV1.21B27,2013-09-27 01:50:00,
2013-09-26 18:55:00,68.0,41.4,29.91,NE,39,1.0,1.0,38,0.00,,,0.00,WeatherCatV1.21B27,2013-09-27 01:55:00,
2013-09-26 19:00:00,67.7,41.2,29.91,NNE,33,0.0,1.0,38,0.00,,,0.00,WeatherCatV1.21B27,2013-09-27 02:00:00,
2013-09-26 19:05:00,67.5,41.7,29.91,NNE,32,0.0,0.0,39,0.00,,,0.00,WeatherCatV1.21B27,2013-09-27 02:05:00,
2013-09-26 19:10:00,67.1,42.0,29.91,NNE,33,0.0,2.0,40,0.00,,,0.00,WeatherCatV1.21B27,2013-09-27 02:10:00,
2013-09-26 19:15:00,66.8,41.0,29.91,NNE,32,0.0,1.0,39,0.00,,,0.00,WeatherCatV1.21B27,2013-09-27 02:15:00,
2013-09-26 19:20:00,66.8,40.4,29.91,NNE,32,0.0,1.0,38,0.00,,,0.00,WeatherCatV1.21B27,2013-09-27 02:20:00,
2013-09-26 19:25:00,66.9,40.5,29.91,NNE,32,0.0,1.0,38,0.00,,,0.00,WeatherCatV1.21B27,2013-09-27 02:25:00,
2013-09-26 19:30:00,66.9,40.5,29.91,NNE,32,0.0,0.0,38,0.00,,,0.00,WeatherCatV1.21B27,2013-09-27 02:30:00,
2013-09-26 19:35:00,66.7,41.0,29.92,NNE,32,0.0,1.0,39,0.00,,,0.00,WeatherCatV1.21B27,2013-09-27 02:35:00,
2013-09-26 19:40:00,66.4,42.6,29.92,NE,37,1.0,2.0,42,0.00,,,0.00,WeatherCatV1.21B27,2013-09-27 02:40:00,
2013-09-26 19:45:00,66.2,41.2,29.92,NE,37,0.0,0.0,40,0.00,,,0.00,WeatherCatV1.21B27,2013-09-27 02:45:00,
2013-09-26 19:50:00,66.0,40.3,29.92,NE,37,0.0,0.0,39,0.00,,,0.00,WeatherCatV1.21B27,2013-09-27 02:50:00,
2013-09-26 19:55:00,66.1,40.4,29.92,NE,37,0.0,0.0,39,0.00,,,0.00,WeatherCatV1.21B27,2013-09-27 02:55:00,
2013-09-26 20:00:00,66.2,41.2,29.93,NE,37,0.0,0.0,40,0.00,,,0.00,WeatherCatV1.21B27,2013-09-27 03:00:00,
2013-09-26 20:05:00,66.3,41.2,29.93,NE,37,0.0,0.0,40,0.00,,,0.00,WeatherCatV1.21B27,2013-09-27 03:05:00,
2013-09-26 20:10:00,66.2,41.2,29.93,NE,37,0.0,0.0,40,0.00,,,0.00,WeatherCatV1.21B27,2013-09-27 03:10:00,
2013-09-26 20:15:00,66.0,41.0,29.93,NE,37,0.0,0.0,40,0.00,,,0.00,WeatherCatV1.21B27,2013-09-27 03:15:00,
2013-09-26 20:20:00,65.7,41.3,29.93,NE,37,0.0,1.0,41,0.00,,,0.00,WeatherCatV1.21B27,2013-09-27 03:20:00,
2013-09-26 20:25:00,65.7,41.3,29.94,NE,38,1.0,2.0,41,0.00,,,0.00,WeatherCatV1.21B27,2013-09-27 03:25:00,
2013-09-26 20:30:00,65.7,42.0,29.94,NE,37,0.0,0.0,42,0.00,,,0.00,WeatherCatV1.21B27,2013-09-27 03:30:00,
2013-09-26 20:35:00,65.7,42.0,29.94,NE,37,0.0,1.0,42,0.00,,,0.00,WeatherCatV1.21B27,2013-09-27 03:35:00,
2013-09-26 20:40:00,65.6,41.9,29.94,SE,126,0.0,1.0,42,0.00,,,0.00,WeatherCatV1.21B27,2013-09-27 03:40:00,
2013-09-26 20:45:00,65.5,42.4,29.94,SE,139,0.0,0.0,43,0.00,,,0.00,WeatherCatV1.21B27,2013-09-27 03:45:00,
2013-09-26 20:50:00,65.2,42.1,29.94,SSE,160,0.0,1.0,43,0.00,,,0.00,WeatherCatV1.21B27,2013-09-27 03:50:00,
2013-09-26 20:55:00,65.1,42.6,29.95,West,269,0.0,1.0,44,0.00,,,0.00,WeatherCatV1.21B27,2013-09-27 03:55:00,
2013-09-26 21:00:00,64.9,41.2,29.95,SW,224,1.0,1.0,42,0.00,,,0.00,WeatherCatV1.21B27,2013-09-27 04:00:00,
2013-09-26 21:01:00,64.9,41.2,29.95,SW,224,0.0,1.0,42,0.00,,,0.00,WeatherCatV1.21B27,2013-09-27 04:01:00,
2013-09-26 21:02:00,65.0,41.3,29.95,NE,34,1.0,2.0,42,0.00,,,0.00,WeatherCatV1.21B27,2013-09-27 04:02:00,
2013-09-26 21:03:00,65.1,40.8,29.95,NNE,25,0.0,2.0,41,0.00,,,0.00,WeatherCatV1.21B27,2013-09-27 04:03:00,
2013-09-26 21:08:00,65.2,40.9,29.95,SSW,205,0.0,1.0,41,0.00,,,0.00,WeatherCatV1.21B27,2013-09-27 04:08:00,
2013-09-26 21:13:00,65.4,41.7,29.95,SW,233,0.0,1.0,42,0.00,,,0.00,WeatherCatV1.21B27,2013-09-27 04:13:00,
2013-09-26 21:18:00,65.3,42.8,29.95,SW,219,1.0,2.0,44,0.00,,,0.00,WeatherCatV1.21B27,2013-09-27 04:18:00,
2013-09-26 21:23:00,64.9,43.6,29.95,SW,217,0.0,1.0,46,0.00,,,0.00,WeatherCatV1.21B27,2013-09-27 04:23:00,
2013-09-26 21:28:00,64.7,40.5,29.96,SW,231,0.0,1.0,41,0.00,,,0.00,WeatherCatV1.21B27,2013-09-27 04:28:00,
2013-09-26 21:33:00,64.9,40.6,29.96,SW,221,0.0,1.0,41,0.00,,,0.00,WeatherCatV1.21B27,2013-09-27 04:33:00,
2013-09-26 21:38:00,65.3,40.3,29.96,WSW,241,1.0,1.0,40,0.00,,,0.00,WeatherCatV1.21B27,2013-09-27 04:38:00,
2013-09-26 21:43:00,65.6,39.3,29.96,WSW,252,1.0,1.0,38,0.00,,,0.00,WeatherCatV1.21B27,2013-09-27 04:43:00,
2013-09-26 21:48:00,65.9,38.9,29.96,North,359,2.0,3.0,37,0.00,,,0.00,WeatherCatV1.21B27,2013-09-27 04:48:00,
2013-09-26 21:53:00,66.0,39.7,29.96,NE,44,0.0,0.0,38,0.00,,,0.00,WeatherCatV1.21B27,2013-09-27 04:53:00,
2013-09-26 21:58:00,65.9,38.9,29.96,SW,227,0.0,2.0,37,0.00,,,0.00,WeatherCatV1.21B27,2013-09-27 04:58:00,
2013-09-26 22:03:00,65.9,39.6,29.96,SW,219,0.0,2.0,38,0.00,,,0.00,WeatherCatV1.21B27,2013-09-27 05:03:00,
2013-09-26 22:08:00,65.8,38.8,29.96,WSW,251,0.0,3.0,37,0.00,,,0.00,WeatherCatV1.21B27,2013-09-27 05:08:00,
2013-09-26 22:13:00,65.6,39.3,29.96,SSW,211,0.0,1.0,38,0.00,,,0.00,WeatherCatV1.21B27,2013-09-27 05:13:00,
2013-09-26 22:18:00,65.4,39.1,29.96,South,188,0.0,0.0,38,0.00,,,0.00,WeatherCatV1.21B27,2013-09-27 05:18:00,
2013-09-26 22:23:00,65.2,39.0,29.96,SW,233,0.0,1.0,38,0.00,,,0.00,WeatherCatV1.21B27,2013-09-27 05:23:00,
2013-09-26 22:28:00,65.0,38.8,29.97,NE,53,0.0,1.0,38,0.00,,,0.00,WeatherCatV1.21B27,2013-09-27 05:28:00,
2013-09-26 22:33:00,65.0,39.4,29.97,SW,232,0.0,1.0,39,0.00,,,0.00,WeatherCatV1.21B27,2013-09-27 05:33:00,
2013-09-26 22:38:00,64.9,39.3,29.97,SSW,196,0.0,0.0,39,0.00,,,0.00,WeatherCatV1.21B27,2013-09-27 05:38:00,
2013-09-26 22:43:00,64.6,39.7,29.97,SW,220,0.0,1.0,40,0.00,,,0.00,WeatherCatV1.21B27,2013-09-27 05:43:00,
2013-09-26 22:48:00,64.4,39.5,29.97,SW,215,0.0,0.0,40,0.00,,,0.00,WeatherCatV1.21B27,2013-09-27 05:48:00,
2013-09-26 22:53:00,64.2,40.0,29.97,SSW,207,0.0,1.0,41,0.00,,,0.00,WeatherCatV1.21B27,2013-09-27 05:53:00,
2013-09-26 22:58:00,64.2,40.0,29.97,SE,143,0.0,0.0,41,0.00,,,0.00,WeatherCatV1.21B27,2013-09-27 05:58:00,
2013-09-26 23:03:00,64.0,39.8,29.97,NE,47,0.0,1.0,41,0.00,,,0.00,WeatherCatV1.21B27,2013-09-27 06:03:00,
2013-09-26 23:08:00,63.7,38.9,29.97,NE,47,0.0,1.0,40,0.00,,,0.00,WeatherCatV1.21B27,2013-09-27 06:08:00,
2013-09-26 23:13:00,63.8,38.4,29.98,SW,215,0.0,0.0,39,0.00,,,0.00,WeatherCatV1.21B27,2013-09-27 06:13:00,
2013-09-26 23:18:00,63.7,38.9,29.97,SW,225,0.0,1.0,40,0.00,,,0.00,WeatherCatV1.21B27,2013-09-27 06:18:00,
2013-09-26 23:23:00,63.4,39.3,29.97,SW,225,0.0,1.0,41,0.00,,,0.00,WeatherCatV1.21B27,2013-09-27 06:23:00,
2013-09-26 23:28:00,63.0,38.9,29.97,SW,225,0.0,1.0,41,0.00,,,0.00,WeatherCatV1.21B27,2013-09-27 06:28:00,
2013-09-26 23:33:00,63.0,38.9,29.97,NNE,25,0.0,1.0,41,0.00,,,0.00,WeatherCatV1.21B27,2013-09-27 06:33:00,
2013-09-26 23:38:00,63.4,39.3,29.98,SSW,210,0.0,1.0,41,0.00,,,0.00,WeatherCatV1.21B27,2013-09-27 06:38:00,
2013-09-26 23:43:00,63.6,39.5,29.98,SW,229,0.0,0.0,41,0.00,,,0.00,WeatherCatV1.21B27,2013-09-27 06:43:00,
2013-09-26 23:48:00,63.6,39.5,29.98,SW,233,1.0,1.0,41,0.00,,,0.00,WeatherCatV1.21B27,2013-09-27 06:48:00,
2013-09-26 23:53:00,63.5,40.0,29.98,NE,45,0.0,0.0,42,0.00,,,0.00,WeatherCatV1.21B27,2013-09-27 06:53:00,
2013-09-26 23:58:00,63.2,39.7,29.98,NE,45,0.0,0.0,42,0.00,,,0.00,WeatherCatV1.21B27,2013-09-27 06:58:00,